Flag for Netherlands Weather past 2 weeks in Eindhoven, Netherlands

Now
59 °F

Fog.


Feels Like: 60 °F
Forecast: 58 / 75 °F
Wind: 3 mph from East

Location: Eindhoven Airport

Current Time: Sep 18, 2014 at 1:56:11 AM

Latest Report: Sep 18, 2014 at 1:25 AM


Visibility: 4 mi

Pressure: 29.83 "Hg

Humidity: 94%

Dew point: 57 °F

Location of EindhovenLocation

Historic Weather in Eindhoven — Graph

°F

Eindhoven temperature yesterday

Maximum temperature yesterday: 77 °F (at 2:25 PM)
Minimum temperature yesterday: 54 °F (at 2:55 AM)
Average temperature yesterday: 64 °F

Past Weeks' High & Low Weather Summary

 TemperatureHumidityPressure
High77 °F (Sep 17, 2:25 PM)100% (Sep 3, 12:55 AM)30.27 "Hg (Sep 3, 12:55 AM)
Low46 °F (Sep 9, 3:25 AM)47% (Sep 17, 3:25 PM)29.83 "Hg (Sep 17, 4:25 PM)
Average61 °F81%30.06 "Hg
* Reported Sep 3 12:25 AM — Sep 18 12:55 AM, Eindhoven, Weather by CustomWeather, © 2014

Note: Actual official high and low records may vary slightly from our data, if they occured in-between our weather recording intervals... More about our weather records

Advertising

Eindhoven weather history for previous 24 hours

 ConditionsComfort  
Time TempWeatherWind HumidityBarometerVisibility
12:55 AM
Sep 18
59 °FFog.5 mph94%29.83 "Hg3 mi
12:25 AM59 °FFog.5 mph94%29.83 "Hg4 mi
11:55 PM
Sep 17
59 °FFog.5 mph94%29.83 "Hg4 mi
11:25 PM59 °FFog.5 mph94%29.83 "Hg4 mi
10:59 PM59 °FFog.3 mph94%29.83 "Hg5 mi
10:55 PM59 °FFog.2 mph94%29.86 "Hg4 mi
10:25 PM61 °FCool.3 mph88%29.86 "HgN/A
9:55 PM61 °FCool.2 mph94%29.86 "HgN/A
9:25 PM61 °FPassing clouds.2 mph94%29.86 "HgN/A
8:55 PM64 °FMild.2 mph78%29.86 "HgN/A
8:25 PM66 °FMild.2 mph73%29.86 "HgN/A
7:55 PM72 °FMild.5 mph61%29.83 "HgN/A
7:25 PM73 °FMild.6 mph57%29.83 "HgN/A
6:55 PM75 °FPassing clouds.6 mph54%29.83 "HgN/A
6:25 PM75 °FMild.7 mph54%29.83 "HgN/A
5:55 PM77 °FPassing clouds.8 mph47%29.83 "HgN/A
5:25 PM77 °FPassing clouds.6 mph51%29.83 "HgN/A
4:55 PM77 °FPassing clouds.9 mph51%29.83 "HgN/A
4:25 PM77 °FWarm.7 mph47%29.83 "HgN/A
3:55 PM77 °FWarm.7 mph51%29.86 "HgN/A
3:25 PM77 °FWarm.8 mph47%29.86 "HgN/A
2:55 PM77 °FWarm.7 mph51%29.86 "HgN/A
2:25 PM77 °FWarm.7 mph54%29.86 "HgN/A
1:55 PM75 °FMild.8 mph54%29.86 "HgN/A
1:25 PM75 °FMild.9 mph54%29.89 "HgN/A
12:55 PM73 °FMild.8 mph57%29.89 "HgN/A
12:25 PM73 °FMild.7 mph61%29.89 "HgN/A
11:56 AM72 °FMild.8 mph65%29.89 "HgN/A
11:25 AM70 °FMild.5 mph69%29.89 "HgN/A
10:55 AM68 °FMild.5 mph73%29.89 "HgN/A
10:25 AM68 °FMild.3 mph73%29.89 "HgN/A
9:55 AM64 °FPassing clouds.3 mph83%29.89 "HgN/A
9:25 AM63 °FFog.5 mph83%29.89 "Hg5 mi
8:55 AM61 °FFog.5 mph88%29.89 "Hg4 mi
8:25 AM59 °FFog.3 mph88%29.89 "Hg3 mi
8:01 AM57 °FFog.3 mph94%29.89 "Hg2 mi
7:55 AM57 °FFog.3 mph94%29.89 "Hg4 mi
7:25 AM55 °FFog.6 mph100%29.89 "Hg3 mi
7:04 AM55 °FFog.3 mph100%29.89 "Hg3 mi
6:55 AM54 °FFog.3 mph100%29.89 "Hg2 mi
6:25 AM55 °FFog.2 mph100%29.89 "Hg2 mi
5:55 AM55 °FFog.3 mph100%29.92 "Hg1 mi
5:25 AM55 °FFog.3 mph94%29.92 "Hg1 mi
4:55 AM55 °FFog.2 mph100%29.92 "Hg2 mi
4:25 AM55 °FFog.2 mph100%29.92 "Hg2 mi
4:02 AM54 °FFog.2 mph100%29.92 "Hg2 mi
3:25 AM54 °FFog.2 mph94%29.92 "Hg4 mi
2:55 AM54 °FFog.2 mph100%29.92 "Hg0 mi
2:25 AM55 °FFog.2 mph100%29.92 "Hg2 mi
1:55 AM55 °FFog.2 mph100%29.92 "Hg1 mi
1:25 AM55 °FFog.2 mph100%29.92 "Hg2 mi
1:01 AM55 °FFog.3 mph94%29.92 "Hg2 mi
Weather by CustomWeather, © 2014

See weather overviewHow to use our weather pages